Flag for Germany Weather past 2 weeks in Friesoythe, Lower Saxony, Germany

Now
61 °F

Scattered clouds.


Feels Like: 61 °F
Forecast: 58 / 71 °F
Wind: 3 mph from Southeast

Location: Meppen-Mil

Current Time: Aug 28, 2014 at 9:48:51 AM

Latest Report: Aug 28, 2014 at 9:20 AM


Visibility: N/A

Pressure: 30.01 "Hg

Humidity: 68%

Dew point: 50 °F

Location of FriesoytheLocation

Historic Weather in Friesoythe — Graph

°F

Friesoythe temperature yesterday

Maximum temperature yesterday: 72 °F (at 2:20 PM)
Minimum temperature yesterday: 43 °F (at 6:20 AM)
Average temperature yesterday: 58 °F

Past Weeks' High & Low Weather Summary

 TemperatureHumidityPressure
High72 °F (Aug 27, 2:20 PM)100% (Aug 16, 12:20 AM)30.04 "Hg (Aug 16, 12:20 AM)
Low43 °F (Aug 27, 6:20 AM)40% (Aug 13, 3:20 PM)29.53 "Hg (Aug 18, 8:20 AM)
Average56 °F78%29.86 "Hg
* Reported Aug 13 8:20 AM — Aug 28 8:20 AM, Friesoythe, Weather by CustomWeather, © 2014

Note: Actual official high and low records may vary slightly from our data, if they occured in-between our weather recording intervals... More about our weather records

Advertising

Friesoythe weather history for previous 24 hours

 ConditionsComfort  
Time TempWeatherWind HumidityBarometerVisibility
8:20 AM
Aug 28
52 °FPassing clouds.2 mph94%30.01 "HgN/A
7:20 AM46 °FPassing clouds.1 mph100%30.01 "HgN/A
6:20 AM45 °FLight fog.1 mph100%30.01 "HgN/A
5:20 AM46 °FCool.1 mph93%30.01 "Hg0 mi
4:20 AM46 °FCool.1 mph93%30.01 "Hg0 mi
3:20 AM46 °FCool.1 mph100%30.01 "Hg0 mi
2:20 AM48 °FCool.No wind94%30.04 "Hg0 mi
1:20 AM50 °FCool.No wind94%30.04 "Hg0 mi
12:20 AM52 °FCool.No wind94%30.04 "Hg0 mi
11:20 PM
Aug 27
54 °FCool.1 mph94%30.04 "Hg3 mi
10:20 PM55 °FCool.No wind88%30.04 "Hg4 mi
9:20 PM59 °FCool.No wind77%30.04 "Hg4 mi
8:20 PM61 °FCool.No wind72%30.01 "Hg4 mi
7:20 PM68 °FMild.2 mph53%30.01 "Hg5 mi
6:20 PM70 °FMild.2 mph43%30.01 "Hg5 mi
5:20 PM72 °FMild.2 mph44%30.01 "Hg4 mi
4:20 PM66 °FScattered clouds.2 mph60%30.01 "HgN/A
3:20 PM70 °FScattered clouds.1 mph46%30.01 "HgN/A
2:20 PM72 °FScattered clouds.2 mph47%30.01 "HgN/A
1:20 PM68 °FScattered clouds.2 mph49%30.04 "HgN/A
12:20 PM66 °FPassing clouds.3 mph56%30.04 "HgN/A
11:20 AM64 °FPassing clouds.3 mph60%30.01 "HgN/A
10:20 AM64 °FPassing clouds.3 mph73%30.01 "HgN/A
9:20 AM61 °FPassing clouds.2 mph77%30.01 "HgN/A
Weather by CustomWeather, © 2014

See weather overviewHow to use our weather pages